Wind_Speed
66 67 68 65 63 61 59 59 58 55 56 58 54 51 51 51 50 46 45 47 47 47 46 46 45 40 39 42 43 43 44 40 36 33 30 29 29 29 26 23 23 21 21 23 21 17 17 17 17 17 15 15 14 14 15 16 17 18 17 18 18 17 16 16 17 17 18 19 20 20 20 22 22 22 23 23 24 23 23 23 24 23 23 22 22 23
67 68 64 59 58 59 58 58 59 57 57 58 56 53 51 50 49 46 46 48 49 49 46 45 46 42 38 41 43 45 45 40 36 35 33 32 32 31 28 25 23 22 22 23 20 17 18 18 18 18 17 16 16 16 16 16 17 18 18 19 20 18 18 18 18 18 19 21 21 20 21 22 22 22 22 22 23 22 22 23 24 25 25 25 25 25
64 65 59 55 57 59 58 58 60 60 59 58 55 51 49 48 49 48 46 48 50 50 48 47 47 43 39 40 42 44 44 40 39 39 37 35 36 33 29 27 26 24 22 21 20 19 18 18 19 18 17 17 18 18 16 17 17 18 19 21 21 19 19 20 20 19 20 21 21 20 21 22 22 22 22 22 22 22 23 25 25 26 27 27 27 27
55 57 53 55 59 60 60 60 62 63 62 61 56 50 47 47 49 49 46 46 50 51 51 50 49 45 40 40 40 40 41 42 42 42 39 37 36 34 32 30 29 27 23 22 22 21 19 19 19 17 18 19 19 19 18 18 18 18 20 22 22 20 20 20 20 20 21 21 21 21 21 21 21 22 23 23 23 25 26 26 27 27 28 29 29 29
42 47 50 56 61 62 61 62 64 65 64 63 58 51 48 47 48 48 46 46 49 51 52 52 53 48 41 39 38 37 41 42 42 42 41 37 36 35 35 33 31 31 27 24 25 25 22 20 19 18 19 20 20 19 19 19 19 20 21 22 22 21 20 21 21 22 22 22 21 21 21 21 22 23 23 23 25 27 27 28 28 29 29 29 30 31
39 40 45 53 62 65 63 63 64 65 65 65 61 51 46 45 46 47 47 48 49 50 51 52 55 51 43 39 37 37 41 40 39 41 41 38 37 37 36 34 33 33 31 27 26 28 25 22 21 20 19 19 18 18 20 22 22 21 22 23 23 22 21 21 22 23 23 22 21 21 21 22 23 23 23 25 27 28 28 29 30 29 30 30 31 32
50 42 40 46 56 62 65 65 64 65 65 66 63 55 47 43 45 47 47 48 50 50 51 52 55 53 47 41 37 37 40 39 37 38 37 36 38 37 37 36 35 35 35 31 27 29 29 25 23 21 20 19 18 19 23 24 23 22 23 24 24 23 23 23 23 23 22 22 22 22 22 22 23 23 24 26 28 28 29 29 30 30 31 32 32 33
62 50 42 44 49 56 65 66 63 65 66 66 64 61 57 49 47 50 49 50 52 52 53 53 54 55 50 43 39 38 38 38 35 33 32 34 36 36 35 35 36 36 36 35 31 29 30 29 26 24 22 21 20 22 24 23 22 22 24 24 25 25 24 23 23 23 22 22 23 23 23 22 22 23 25 27 28 29 29 30 30 31 32 32 33 33
64 56 49 47 46 52 62 64 62 64 66 66 63 62 62 57 52 51 52 53 54 55 56 53 53 56 53 45 40 39 39 37 32 29 30 33 34 34 33 32 34 35 36 37 36 33 31 31 30 28 26 25 25 26 25 24 24 24 24 24 24 24 24 25 25 24 23 23 24 24 24 23 23 24 26 27 28 28 29 29 31 32 32 33 33 34
61 58 55 53 51 49 51 54 56 60 65 68 66 60 58 59 55 52 53 54 56 59 58 54 53 55 55 48 40 40 40 36 31 29 29 31 32 32 31 30 31 33 35 37 37 36 35 33 32 32 31 31 30 29 28 28 27 26 25 24 23 24 25 26 27 26 25 24 24 24 24 24 25 25 27 28 28 28 29 30 31 32 33 34 34 34
63 59 56 55 55 51 48 49 49 52 60 64 64 60 56 57 57 54 53 52 56 62 59 55 53 55 56 51 42 39 38 34 32 31 28 28 30 31 30 30 29 30 31 33 34 35 35 35 34 35 35 34 32 32 33 32 30 28 27 27 26 25 26 27 28 27 27 26 25 24 24 25 26 27 28 28 28 29 30 30 31 32 33 34 34 35
69 66 60 52 50 53 57 57 51 48 53 59 62 59 55 56 56 55 54 51 56 65 62 57 56 56 57 52 43 37 34 32 33 32 30 30 31 31 29 28 28 27 27 28 28 29 30 32 34 35 35 34 33 33 33 33 32 31 30 29 28 28 27 27 28 29 29 28 26 26 26 26 27 28 28 29 29 30 31 32 33 34 34 35 36 36
68 69 65 54 47 48 54 58 56 52 50 53 60 61 57 57 57 60 62 59 62 68 66 62 61 59 57 53 46 39 33 32 32 32 33 33 31 31 30 28 27 27 26 25 25 25 25 26 29 30 31 32 32 31 31 31 32 32 31 30 29 29 28 28 28 29 29 28 27 27 28 28 29 29 29 30 30 31 32 33 34 35 36 37 37 38
65 66 67 61 52 47 49 55 56 54 48 47 55 63 64 63 64 67 71 71 70 71 70 69 68 63 58 54 49 43 37 35 33 31 33 33 31 31 31 29 28 28 28 27 25 25 24 23 24 25 26 26 28 29 29 30 31 32 32 31 30 29 29 29 29 29 29 29 29 29 30 31 31 31 31 31 31 32 33 33 35 36 37 37 38 39
69 68 67 64 59 52 48 49 49 49 48 45 49 59 64 67 68 68 70 72 72 72 70 71 71 65 59 54 50 46 42 38 36 34 33 33 33 33 32 31 29 28 29 29 27 26 24 23 23 23 23 22 23 24 25 26 27 27 28 29 29 29 30 31 31 31 31 30 31 32 32 32 32 32 33 32 32 33 33 34 35 36 37 38 38 39
70 72 67 62 62 61 54 48 46 49 51 48 48 53 59 64 64 63 64 64 66 68 69 71 71 66 60 56 52 49 47 42 39 39 36 34 35 35 35 34 32 31 30 29 28 27 25 24 23 22 22 22 22 22 22 23 23 23 24 25 26 27 29 29 29 29 30 30 31 32 32 32 32 32 33 33 33 33 34 34 35 35 36 38 39 40
65 69 70 66 65 66 63 58 56 55 52 51 53 55 57 59 60 61 63 64 65 69 72 75 73 67 63 61 56 52 51 46 42 40 39 36 35 36 36 35 34 33 31 29 28 28 27 25 24 23 23 23 24 24 24 24 25 25 25 26 26 27 28 28 28 28 29 30 31 31 31 31 31 31 31 32 32 33 34 34 34 35 36 38 39 40
66 65 68 70 68 65 64 65 66 64 59 58 58 55 53 56 59 59 60 63 66 69 73 75 73 70 66 63 58 53 50 48 45 42 41 38 36 36 36 36 36 34 32 30 29 29 28 27 25 24 24 24 25 25 25 25 25 25 25 25 26 26 27 27 28 28 29 29 29 28 29 29 29 29 30 31 31 32 33 33 34 35 36 37 39 40
70 69 68 70 68 66 67 68 70 71 69 66 62 57 56 59 60 58 57 60 64 68 73 75 74 73 69 63 59 55 50 49 47 43 41 39 38 38 38 37 37 36 33 31 30 30 29 28 27 26 25 26 26 26 26 25 25 24 24 24 25 25 26 26 26 26 25 25 25 26 26 27 27 27 28 29 30 31 31 32 34 35 36 38 39 41
68 69 70 71 69 68 70 72 73 73 72 69 65 63 63 62 61 59 56 56 58 62 68 73 76 76 70 64 62 59 54 51 49 46 42 40 39 40 40 39 38 37 35 32 30 30 29 29 29 27 27 27 27 26 26 25 24 24 25 25 25 25 26 25 24 24 24 25 25 26 26 26 26 26 26 27 28 29 31 32 34 35 37 38 40 41
71 69 69 71 70 70 73 75 74 73 72 70 68 67 67 65 64 63 60 57 57 59 64 73 78 75 68 65 65 62 59 55 51 48 46 44 41 40 40 40 39 38 37 35 32 30 29 29 29 29 28 28 28 27 26 26 25 26 26 26 26 26 25 25 25 25 26 26 26 26 25 25 25 25 26 27 28 29 31 33 34 36 37 38 40 41
71 70 71 72 72 71 71 71 70 69 70 68 67 67 66 65 66 67 67 65 63 62 63 69 77 76 70 68 68 65 62 56 51 50 49 46 42 40 40 40 39 38 38 37 36 33 31 30 29 30 30 29 29 28 28 27 27 27 27 26 26 26 26 27 27 27 27 27 26 25 25 25 25 26 27 28 29 30 32 33 35 36 37 38 40 41
70 68 69 71 72 69 68 67 66 66 66 66 66 65 62 62 65 66 68 68 65 64 62 63 71 75 73 70 69 66 63 55 50 50 49 46 42 39 39 40 39 40 40 39 39 38 35 33 31 30 30 30 30 30 29 29 29 28 28 28 27 28 28 29 29 29 28 28 27 26 27 27 28 29 29 30 31 32 33 34 35 37 37 38 40 41
74 73 71 70 69 69 68 66 65 64 65 67 68 64 62 62 62 61 61 60 60 61 60 61 67 70 70 69 68 66 65 58 52 52 50 46 43 41 39 39 40 41 40 40 39 38 37 35 34 32 31 30 30 30 30 30 29 29 29 29 29 30 30 31 31 31 30 29 28 29 29 30 31 31 32 32 33 34 35 35 36 37 38 39 41 42
74 75 76 75 72 71 71 69 67 66 66 66 64 62 61 60 60 60 59 57 58 61 62 64 67 68 67 68 68 68 67 63 57 55 52 48 45 43 40 39 40 40 39 38 36 36 36 36 36 35 33 32 31 30 30 30 30 30 30 31 31 32 33 33 33 33 32 31 31 31 32 32 33 33 34 35 35 36 36 37 38 39 40 41 42 44
74 76 77 78 78 76 76 74 71 68 67 65 62 59 58 59 61 62 61 62 64 63 65 69 70 68 65 65 67 69 70 68 63 58 54 50 46 43 40 39 39 39 38 37 37 36 36 36 36 36 34 33 33 32 32 32 31 32 32 32 33 33 34 34 34 34 33 33 33 33 33 34 35 35 36 37 37 38 38 39 40 41 42 43 44 46
74 76 76 75 76 76 75 74 72 70 70 68 63 58 57 58 60 62 65 68 65 60 64 67 66 66 67 66 66 65 66 67 66 61 56 52 48 44 41 40 40 39 39 38 39 39 39 38 37 36 36 35 35 35 35 35 35 34 34 34 34 35 35 35 34 34 34 35 35 35 35 36 37 38 38 38 39 39 40 40 41 42 43 44 45 46
66 70 73 70 70 72 73 73 72 72 72 69 63 60 58 57 60 64 68 68 64 64 66 62 57 61 65 66 69 67 63 62 63 60 54 51 49 46 43 42 42 42 42 41 42 42 42 42 40 38 38 37 37 37 37 37 37 37 37 37 36 36 36 36 36 36 36 36 36 37 38 38 39 39 39 39 40 40 41 41 42 42 43 44 45 46
62 65 67 61 60 65 69 71 73 72 71 66 62 60 59 59 62 64 64 63 63 67 66 58 56 60 60 61 66 66 62 58 57 56 51 49 51 50 46 46 47 47 47 46 46 47 46 44 42 41 40 39 39 39 39 39 39 38 38 38 37 38 38 38 38 38 38 38 38 39 39 39 40 40 40 40 41 41 41 42 42 43 44 45 46 46
67 62 58 55 55 59 62 65 68 70 70 67 63 59 59 60 61 62 61 59 61 65 62 56 58 60 55 55 56 56 56 56 56 57 55 51 53 54 51 51 52 51 51 51 50 50 48 46 44 43 42 41 41 41 41 40 40 39 39 39 39 40 40 40 40 40 39 39 40 40 40 40 40 41 41 41 41 42 42 42 43 44 44 45 46 46
76 65 56 54 54 55 60 61 62 65 66 66 65 62 62 63 62 62 61 58 59 63 60 56 59 57 50 48 51 52 55 56 56 58 57 54 53 54 54 53 53 53 53 54 54 53 50 47 46 45 45 44 44 44 43 42 41 40 41 41 41 41 41 41 41 40 40 41 41 41 41 41 40 40 40 40 41 41 42 43 44 44 45 46 46 46
83 74 66 62 56 50 53 57 59 62 63 65 66 65 64 65 64 63 61 58 59 62 59 59 59 52 43 44 49 52 53 53 52 53 55 53 51 51 51 50 52 54 53 53 54 53 51 50 49 49 48 47 46 45 44 43 43 42 43 43 42 42 41 41 41 41 42 42 41 41 40 39 39 39 39 39 40 41 43 44 44 45 45 45 45 45
86 84 78 75 66 51 47 51 52 57 64 67 68 65 63 63 62 62 60 58 58 59 60 60 55 46 42 46 48 48 48 48 49 49 51 50 48 49 50 47 47 50 50 50 52 53 53 52 52 52 50 48 47 46 46 45 44 44 44 43 42 42 41 42 42 42 42 41 40 39 38 37 37 37 38 40 42 43 44 44 44 44 44 44 44 44
81 85 83 83 75 57 47 47 48 55 65 68 67 66 64 62 60 61 60 56 55 57 59 59 53 47 48 49 46 46 45 44 46 47 48 49 49 51 53 49 44 45 45 47 49 51 53 53 53 52 50 48 48 47 47 46 45 44 44 42 42 41 41 41 42 42 41 40 38 37 36 36 37 39 41 42 43 44 43 43 43 43 42 43 43 44
77 79 81 87 84 65 48 46 52 59 62 61 63 66 64 59 57 58 59 57 58 59 59 58 56 51 47 45 42 43 42 41 43 45 45 47 49 51 54 52 47 45 44 45 48 50 51 53 53 51 49 49 49 48 47 46 45 44 43 42 42 42 42 42 42 41 40 38 36 35 35 37 39 41 42 43 43 42 42 41 41 41 42 43 44 45
73 74 77 84 87 73 56 53 58 58 54 55 60 63 61 57 55 57 60 60 60 59 58 58 55 49 45 44 43 42 42 42 44 46 47 48 48 50 52 51 48 46 45 45 46 48 49 51 50 50 50 50 49 47 46 45 45 44 42 42 42 43 43 43 41 40 38 36 35 35 36 38 40 41 40 40 40 40 40 40 40 41 41 42 42 42
72 77 81 84 87 81 69 62 58 56 55 57 58 58 59 58 56 57 60 58 55 56 58 58 54 51 49 48 46 47 48 48 48 50 51 49 46 46 49 48 46 46 45 45 47 48 49 50 50 50 51 51 49 46 45 44 43 43 42 43 44 44 43 42 39 38 36 35 35 35 36 38 38 37 37 37 37 38 37 38 38 38 38 38 38 38
75 79 83 85 88 87 79 70 63 59 58 57 55 53 53 54 52 53 55 55 53 52 54 53 51 50 49 47 48 49 51 51 51 51 50 47 43 43 45 45 43 42 43 43 44 46 47 49 50 51 52 51 48 45 44 44 43 44 44 45 44 43 42 40 38 36 35 35 35 35 36 36 35 35 35 35 35 35 35 35 35 35 35 36 37 37
75 76 79 83 86 88 86 82 76 68 59 53 51 50 50 51 50 50 54 55 52 51 52 51 50 50 48 48 51 52 53 54 52 48 47 46 43 42 43 41 39 40 43 43 42 42 45 48 50 51 51 49 47 45 44 44 45 46 46 45 44 43 41 40 37 36 35 34 34 34 34 33 33 34 34 35 34 34 34 33 33 34 35 36 37 38
73 71 72 76 81 86 87 86 81 72 60 53 52 52 53 53 50 52 55 50 43 43 48 49 48 47 46 49 53 55 56 55 49 44 44 43 41 42 43 40 39 41 45 47 46 45 47 49 50 50 49 47 46 45 45 45 47 47 46 45 44 43 41 39 36 36 35 34 33 33 32 31 31 32 33 34 35 34 34 33 34 34 35 36 37 38
67 67 66 67 71 78 83 84 80 70 59 55 57 57 57 56 54 56 55 45 37 37 38 41 44 45 46 50 53 54 54 51 47 45 45 41 40 43 44 43 42 42 46 50 51 50 50 50 50 49 47 45 44 44 45 47 48 47 46 45 44 43 40 37 36 36 36 34 33 33 31 30 29 29 30 31 33 34 34 34 34 34 35 36 37 38
60 62 64 63 63 68 75 79 79 70 57 54 59 62 61 59 56 53 48 43 40 37 34 38 44 46 47 51 53 53 51 49 49 50 48 43 42 43 44 45 45 45 47 50 53 53 52 50 49 48 46 44 44 44 45 47 48 47 46 46 44 42 39 37 37 38 36 34 34 34 33 31 30 28 28 30 31 32 32 32 32 33 34 35 36 38
58 59 62 63 62 63 66 72 76 69 56 51 56 61 63 61 54 48 44 43 43 40 38 42 45 45 47 50 51 53 53 53 54 54 51 48 45 44 45 46 48 49 49 50 53 55 54 51 49 48 45 44 44 44 46 48 48 47 47 46 44 42 40 39 40 39 37 36 36 35 34 33 31 30 30 31 31 31 32 32 33 34 36 37 38 39
59 60 61 61 61 61 63 68 71 65 55 51 52 55 59 57 52 49 47 45 43 44 46 47 47 47 48 49 51 54 56 57 57 56 55 54 50 47 47 48 50 52 53 53 54 55 55 52 50 47 45 45 45 45 47 49 49 48 47 46 44 43 42 42 43 41 39 38 38 37 36 33 32 33 33 34 34 33 34 35 36 38 39 39 40 40
58 59 60 61 61 60 60 64 66 60 53 52 51 51 54 55 52 51 50 47 45 48 50 51 50 50 50 51 53 54 55 56 57 57 57 56 53 51 50 49 51 54 54 55 55 55 55 54 51 49 47 45 46 47 48 49 49 48 47 46 46 45 44 45 45 43 41 41 40 40 38 36 34 35 36 37 37 37 37 38 39 40 41 41 42 42
58 60 60 61 63 63 61 62 62 56 50 51 53 52 53 55 53 51 51 50 49 49 51 52 52 51 51 52 53 53 54 54 55 57 58 57 56 55 53 52 53 55 55 56 56 56 56 55 52 50 49 47 47 48 49 50 50 49 49 48 48 47 46 47 46 44 43 43 43 42 41 39 38 37 38 39 40 40 41 41 42 43 43 43 44 44
57 59 61 61 64 65 62 59 56 50 46 48 53 52 51 53 54 53 53 53 52 52 53 54 54 54 53 54 54 55 56 55 55 56 56 56 55 55 54 53 54 55 55 56 56 56 57 56 54 53 51 50 49 49 50 51 51 50 50 49 49 49 48 48 47 46 45 45 45 45 44 42 41 41 41 42 43 43 44 44 45 45 45 45 46 46
53 55 59 61 64 66 62 58 53 49 44 45 50 52 52 52 52 53 53 54 55 55 56 57 57 57 56 55 56 57 58 58 58 57 56 55 54 53 53 54 55 55 56 57 57 57 56 55 54 53 53 52 52 51 52 52 51 51 51 50 50 51 50 49 48 47 47 47 47 47 46 45 44 44 44 44 44 45 45 46 46 47 47 47 48 48
50 53 56 58 63 68 64 58 53 50 44 40 43 49 52 53 53 53 53 54 55 55 55 56 57 57 58 58 57 58 58 59 59 58 57 56 55 54 55 56 56 57 57 56 54 53 52 52 52 53 54 55 54 53 53 52 53 52 52 52 53 53 52 51 50 48 48 48 48 49 48 47 47 46 46 46 47 47 47 47 48 48 49 49 50 50
50 52 54 55 61 68 63 57 54 53 47 41 42 45 47 50 53 54 54 54 54 54 55 56 57 57 57 58 58 58 58 57 58 59 58 57 55 55 56 56 56 56 54 50 48 48 48 50 52 55 57 57 56 55 54 54 55 54 53 54 54 54 52 51 50 49 49 49 49 49 49 48 48 47 47 47 48 48 49 49 50 50 51 51 52 52
51 51 51 52 59 66 64 61 61 61 53 48 48 47 46 48 50 54 56 56 56 56 57 57 58 58 58 59 59 58 58 58 58 58 58 58 57 56 56 56 55 54 51 48 47 47 48 51 53 56 57 58 57 56 56 56 56 56 56 56 55 54 53 52 51 51 50 50 50 50 50 49 48 47 47 47 48 49 50 51 51 52 53 53 54 53
Wind_Direction
224 225 225 225 227 230 232 231 231 231 231 231 233 235 238 239 240 240 238 236 238 240 239 240 241 236 233 238 242 245 248 247 247 247 246 246 247 249 248 239 235 238 244 248 247 243 242 243 246 247 249 252 252 250 252 258 262 263 262 257 254 250 247 243 240 241 242 243 246 249 252 253 255 257 258 258 258 259 261 264 266 267 268 269 272 275
223 224 225 225 227 230 231 231 232 232 232 234 236 238 240 241 238 237 237 236 237 239 240 240 240 238 234 237 240 242 245 246 245 247 247 247 245 246 249 246 238 235 242 252 251 244 242 241 242 243 243 245 247 246 247 252 258 263 264 260 257 254 251 249 246 245 245 246 246 248 251 253 256 257 258 258 260 261 262 263 265 266 268 269 271 275
223 223 222 224 226 229 230 230 231 231 232 233 236 239 241 239 236 235 237 238 238 238 240 240 241 239 235 236 239 240 244 245 243 243 246 248 247 247 250 249 242 235 243 256 254 247 245 243 242 243 245 246 246 246 246 247 250 253 257 259 260 259 257 255 253 250 249 251 252 252 253 255 257 258 259 259 260 260 259 260 262 265 269 272 276 279
224 222 220 223 226 228 228 229 230 229 230 231 233 236 236 234 234 236 238 238 238 238 239 240 241 238 234 235 239 241 242 244 244 244 245 249 251 251 251 249 244 240 246 257 255 248 246 244 242 242 244 246 246 247 249 248 247 247 250 255 260 261 261 260 258 256 255 255 256 255 255 257 259 261 261 261 260 259 258 259 263 267 271 276 280 282
220 218 222 226 227 228 227 227 228 229 228 229 231 234 232 231 235 238 238 238 238 238 239 241 242 238 235 236 238 242 243 242 244 247 247 250 253 252 251 250 248 245 246 253 255 250 245 244 243 239 240 244 246 248 252 253 251 248 248 252 256 257 258 259 259 259 259 259 259 258 259 259 259 260 262 263 261 260 260 262 265 268 272 276 278 280
217 214 223 228 229 229 228 227 228 230 230 229 229 232 233 234 238 240 239 240 240 240 240 243 244 239 236 236 237 241 246 245 244 247 250 252 254 254 252 251 252 250 247 249 254 252 247 244 243 241 240 242 244 246 249 250 251 251 252 254 256 255 254 255 257 258 260 260 260 259 259 259 258 260 261 262 261 262 263 263 264 267 270 272 275 277
226 224 228 230 230 230 229 228 228 229 231 230 228 230 234 236 240 242 242 243 243 242 241 244 245 241 235 233 236 240 246 248 247 247 250 254 256 256 253 252 253 252 249 248 249 251 249 247 243 241 240 239 238 242 244 247 250 253 255 256 257 257 256 256 256 258 260 260 260 258 256 257 259 260 260 261 262 263 263 264 265 266 268 270 272 274
231 230 230 230 230 229 228 227 228 229 231 231 229 231 234 237 241 242 243 245 244 243 243 242 244 243 235 229 233 239 244 247 248 248 250 252 255 256 254 252 252 253 251 249 248 249 250 250 246 241 239 238 237 240 244 247 251 252 254 256 258 260 261 261 260 258 257 257 258 258 257 258 259 259 259 261 263 264 265 266 267 267 268 270 271 272
234 233 231 230 230 230 228 226 228 230 232 231 230 233 235 237 240 241 241 243 244 244 243 241 244 245 238 229 231 237 242 246 248 250 250 250 252 255 256 255 252 251 250 249 249 250 250 249 249 245 242 241 241 242 245 247 249 251 254 258 261 263 263 263 262 260 258 256 256 259 260 260 259 258 259 262 264 265 267 268 268 269 270 270 271 273
234 234 233 234 235 232 229 230 232 232 231 232 231 232 235 236 237 238 239 240 244 245 242 240 244 246 241 234 230 232 238 245 249 250 251 250 251 253 254 253 251 250 250 250 251 252 252 250 249 248 247 247 248 249 249 248 249 251 255 259 262 262 261 261 262 263 262 260 258 259 261 262 262 263 263 264 266 267 268 269 270 271 272 273 275 275
233 232 232 236 238 234 232 236 238 237 235 234 232 231 233 234 235 237 237 238 243 245 241 241 245 247 244 236 229 229 234 241 246 249 253 252 249 249 251 252 250 249 250 251 252 254 254 251 249 249 250 251 253 253 252 251 251 252 256 259 260 260 259 259 261 262 263 264 264 264 265 266 267 267 268 269 270 271 271 272 273 274 275 277 278 278
233 232 231 236 239 236 235 236 237 238 238 236 234 233 233 233 234 236 236 235 241 243 242 243 245 247 243 235 229 228 231 239 244 246 251 251 248 247 248 251 252 251 250 250 252 253 252 251 250 250 250 251 253 255 254 252 251 253 256 258 258 258 258 258 259 260 262 265 267 268 269 270 270 271 273 274 275 275 275 276 275 276 277 278 278 279
234 234 233 233 236 235 235 234 232 232 234 234 234 233 233 234 234 235 236 237 242 244 244 245 247 245 241 237 236 232 230 239 243 242 246 249 249 248 246 247 251 253 252 250 250 251 251 252 253 253 253 252 253 255 255 253 251 252 254 256 257 257 257 258 259 260 262 264 266 267 268 270 273 275 277 277 277 277 278 278 278 278 277 277 278 280
231 233 232 229 228 227 227 228 229 229 230 231 234 234 233 234 234 235 237 237 241 244 245 247 248 244 239 239 242 241 237 238 240 239 241 246 250 250 249 248 248 252 254 254 252 252 253 255 256 258 258 256 254 254 254 253 253 254 255 256 257 257 256 256 257 258 259 261 262 264 267 271 275 277 278 278 278 279 280 281 280 279 279 279 279 280
232 231 231 227 226 226 226 227 230 234 236 235 238 239 238 237 238 238 239 240 241 244 246 248 248 245 240 241 245 248 246 240 239 239 236 239 245 249 252 252 252 253 254 256 257 256 256 256 257 259 259 258 255 253 254 254 255 256 257 257 257 256 255 255 255 256 258 260 262 264 267 270 273 274 276 277 279 280 280 280 281 282 282 282 281 281
236 235 234 232 231 231 229 229 231 235 239 238 237 239 239 239 241 242 243 243 244 245 246 248 248 245 243 243 244 247 249 244 241 241 239 238 241 246 251 254 256 256 256 258 260 260 259 258 257 258 256 256 255 254 255 256 256 257 255 255 255 254 255 255 255 256 258 259 261 262 265 267 269 271 273 275 276 276 277 278 279 282 283 283 283 283
236 238 236 235 235 233 231 232 235 238 239 240 240 239 239 241 241 242 243 243 243 245 244 244 245 243 243 243 242 244 247 248 246 244 244 244 243 245 251 255 257 257 257 258 260 261 262 260 259 257 254 253 255 255 255 255 255 256 255 255 255 255 257 258 257 257 257 258 260 262 264 266 268 270 271 273 274 274 276 278 279 280 280 281 282 283
233 237 238 236 236 235 234 236 239 241 241 243 244 243 243 244 243 241 242 242 243 244 244 243 243 243 243 243 242 243 247 251 252 248 247 248 249 249 251 255 258 259 258 257 258 260 261 261 260 257 255 254 254 255 255 255 256 256 257 257 256 256 257 258 258 259 260 261 262 263 264 265 266 268 269 271 272 274 277 278 278 279 279 279 280 280
232 235 237 237 237 237 238 238 238 239 240 242 244 244 244 246 246 244 244 245 246 247 246 245 244 243 241 240 243 246 249 254 257 255 251 249 250 251 251 253 256 259 259 257 256 257 258 259 259 257 256 255 255 255 255 255 256 255 256 255 255 256 256 256 257 258 260 261 261 262 262 264 266 267 269 271 273 276 278 277 278 278 278 277 277 278
230 234 236 237 237 238 238 238 237 237 237 238 240 242 242 244 246 247 247 249 250 251 250 248 247 244 240 239 244 249 253 255 257 259 258 252 248 250 251 251 253 255 257 257 255 255 255 257 258 257 256 256 256 256 255 254 254 254 255 255 255 255 255 256 257 258 260 261 262 264 266 268 271 272 274 276 277 279 279 278 278 278 277 277 277 277
229 232 235 236 238 239 239 239 239 238 238 238 240 242 243 243 244 244 245 246 246 248 248 248 247 242 239 240 244 248 253 255 255 258 259 257 251 249 249 250 251 253 255 258 258 257 255 255 256 257 257 255 254 254 255 255 255 256 257 258 258 258 259 261 263 264 265 266 268 269 271 273 275 277 279 280 280 280 279 278 278 278 278 278 278 278
228 231 234 236 238 239 240 241 242 242 241 242 244 246 247 247 247 246 245 244 244 245 247 248 246 240 237 240 242 245 250 253 256 256 258 260 258 254 252 252 252 254 255 257 259 258 257 254 253 253 254 255 254 254 255 256 257 258 258 259 260 261 263 265 266 268 268 269 270 272 273 275 277 278 280 280 280 279 278 277 278 278 279 280 280 280
228 232 234 236 238 241 241 241 241 241 240 240 243 245 247 247 247 247 248 248 249 251 251 254 251 242 239 243 246 248 250 251 255 258 258 260 261 259 258 256 255 254 253 254 256 257 258 256 254 252 251 252 253 254 256 257 258 258 258 259 260 261 263 264 265 266 266 268 270 272 274 277 279 281 282 282 281 279 278 277 277 278 279 281 281 282
228 232 233 235 237 239 241 240 239 238 237 237 237 239 241 243 245 246 248 249 251 252 251 254 254 245 241 246 249 251 254 253 254 257 258 260 260 260 260 257 255 254 253 252 253 254 256 256 256 254 253 252 252 253 254 255 256 256 257 259 260 262 263 264 264 264 265 267 269 272 276 278 280 282 283 282 281 280 279 278 278 279 280 280 281 282
226 231 232 232 232 233 235 236 235 234 235 236 236 236 239 242 242 242 242 243 244 245 244 248 250 245 242 245 246 248 251 251 251 252 254 256 257 257 257 256 254 254 253 253 252 252 253 254 255 255 255 255 255 254 254 253 253 254 255 257 259 260 261 261 262 263 265 266 268 271 274 276 278 280 280 279 279 278 278 277 278 278 279 279 280 280
228 230 230 230 231 232 232 233 234 233 234 236 236 237 240 242 242 241 241 241 242 242 244 246 248 247 246 247 248 248 248 249 249 249 250 253 254 254 255 254 253 253 253 253 252 252 252 253 253 254 254 255 256 257 258 258 258 258 258 259 259 259 259 259 260 262 263 265 267 270 272 273 274 275 275 275 275 275 276 276 277 278 278 279 280 280
224 224 225 228 231 234 236 237 237 237 237 238 239 240 241 242 243 243 242 242 242 243 245 246 248 248 249 249 251 252 252 252 251 250 249 251 252 252 252 251 252 253 253 253 253 254 254 254 253 253 253 254 255 257 259 260 261 262 263 263 262 261 260 260 262 263 264 266 268 270 271 272 273 273 273 274 274 276 277 278 279 280 281 281 281 281
221 218 218 222 228 232 235 237 239 240 239 239 241 243 244 245 244 243 242 242 241 241 242 243 245 246 247 248 249 250 252 254 255 254 253 251 250 249 249 250 252 254 254 253 254 255 254 254 254 254 254 255 256 257 259 260 261 262 262 262 261 261 261 262 262 263 264 266 268 270 272 273 273 273 274 275 276 277 279 280 281 282 282 283 283 283
222 217 215 222 229 231 232 233 235 238 239 238 239 241 242 243 244 245 245 245 244 244 244 244 246 246 244 245 246 248 250 253 256 258 257 254 251 250 249 249 251 252 252 252 253 253 254 253 253 254 255 257 258 259 260 261 261 260 260 259 259 260 260 261 262 263 265 267 269 271 272 272 272 272 273 275 277 279 281 282 283 283 284 284 284 285
223 217 217 227 234 233 233 232 233 235 238 237 237 237 238 240 243 245 247 247 247 248 247 246 247 246 243 245 248 249 252 254 256 257 258 257 255 252 248 247 248 248 248 249 250 251 252 252 253 255 257 259 260 260 260 260 259 258 258 258 258 259 259 260 262 263 266 267 269 269 269 270 271 273 275 278 280 282 283 284 284 285 285 285 286 286
225 221 220 227 232 231 231 231 232 233 235 238 238 239 240 242 243 243 244 244 245 247 245 243 246 245 241 243 246 247 250 253 254 256 257 256 256 253 249 245 243 243 244 246 249 250 252 253 255 257 258 259 259 259 259 258 257 257 257 257 258 259 260 261 263 264 265 266 267 267 268 270 274 277 280 282 283 284 285 285 285 285 285 285 286 286
227 225 223 226 231 230 228 230 232 233 235 237 238 239 242 243 243 243 242 241 242 243 241 239 241 240 235 237 240 242 246 250 252 255 258 258 258 257 254 248 243 243 243 246 249 252 253 255 256 258 258 258 258 257 256 256 256 255 256 257 258 259 261 261 262 263 264 265 266 268 271 274 277 280 282 284 285 285 285 285 285 285 285 286 286 287
229 228 226 228 232 230 226 230 233 235 237 237 236 238 242 245 245 243 242 242 242 243 242 240 240 240 239 239 240 243 246 249 251 255 258 260 259 258 256 251 246 244 245 246 250 253 254 254 255 256 256 256 256 255 255 255 256 255 256 257 257 258 258 259 260 262 263 265 267 271 274 277 279 282 283 284 285 285 286 286 286 287 288 288 289 290
231 231 230 231 232 230 226 229 236 240 241 239 240 242 244 247 248 245 243 243 244 246 246 243 240 239 241 240 239 243 246 247 249 251 253 255 255 254 254 252 247 244 243 243 246 249 251 252 252 253 253 253 253 253 254 255 255 256 256 256 256 256 257 259 261 263 264 266 269 272 275 278 281 284 286 286 288 288 289 289 289 290 290 290 290 290
230 231 231 231 232 231 228 233 243 246 242 239 240 241 242 245 248 248 248 246 246 248 248 245 239 237 240 242 241 244 247 246 248 250 251 253 253 252 253 253 250 247 243 242 242 244 246 248 249 251 250 250 250 251 252 253 254 255 255 255 256 256 258 259 261 263 264 266 269 272 276 281 285 287 289 290 290 290 290 290 290 290 290 289 290 290
228 229 230 231 231 231 232 237 245 248 242 236 237 237 238 240 242 245 245 243 244 246 246 243 238 235 240 243 242 243 244 245 248 249 249 250 251 251 252 253 253 252 248 244 243 243 244 246 248 249 249 249 249 250 251 251 251 252 253 254 255 256 257 259 260 261 262 264 268 273 279 285 288 290 291 291 291 290 289 289 288 288 288 289 290 291
229 231 231 232 232 232 234 238 244 247 242 236 235 236 238 241 243 244 245 244 244 246 245 241 235 232 236 240 240 240 242 244 246 245 244 247 249 250 253 254 255 254 252 249 246 244 244 246 248 249 250 250 250 249 249 249 249 250 251 252 253 254 256 257 258 259 261 265 270 277 283 288 290 291 291 290 289 288 288 287 287 287 288 290 291 293
231 233 232 233 234 233 235 237 241 247 245 237 236 237 239 242 243 244 246 244 242 244 245 241 235 234 237 243 244 244 246 249 248 245 246 248 250 252 254 254 256 256 254 251 249 247 248 249 249 250 251 251 251 249 248 248 248 249 250 250 252 253 254 255 256 258 262 267 274 281 286 289 289 289 288 287 286 286 286 286 286 287 289 291 292 294
231 233 233 235 236 235 235 236 240 247 247 238 235 235 236 237 238 242 245 240 235 239 243 241 239 239 240 243 244 244 246 248 245 243 245 247 248 250 252 251 252 253 252 251 250 249 249 250 250 251 252 253 251 249 248 248 248 249 249 250 251 252 252 253 255 259 264 270 277 283 286 288 288 288 287 286 285 284 284 285 286 287 289 291 292 294
230 232 233 236 237 237 236 237 240 245 245 238 233 232 233 235 237 241 244 238 231 237 242 241 241 241 239 239 240 240 241 242 241 240 243 246 248 249 248 246 246 248 250 250 250 249 248 249 250 251 253 253 252 250 249 249 249 249 249 250 250 250 251 253 257 261 266 272 278 282 284 286 289 290 290 288 286 285 285 286 288 289 290 291 292 293
229 230 231 234 237 237 237 237 239 242 242 237 233 232 233 236 237 239 241 238 235 237 239 240 239 237 236 238 239 238 238 240 242 242 243 245 247 247 246 246 246 247 249 251 251 250 249 250 252 252 252 252 251 250 249 247 247 247 247 247 248 248 250 253 258 262 266 271 276 278 279 282 285 290 292 291 289 287 287 287 289 290 290 290 291 292
228 228 228 229 231 234 236 237 238 238 238 237 234 233 234 236 236 236 236 237 236 234 233 235 235 234 235 237 237 236 236 237 240 242 242 241 240 241 243 245 246 246 248 250 252 252 251 251 251 252 251 250 249 247 245 245 245 245 245 246 247 248 249 253 257 261 265 269 272 272 273 276 279 283 287 289 288 287 286 286 286 286 286 286 287 289
233 232 229 226 226 228 230 232 234 235 234 233 234 235 235 234 234 233 232 232 231 230 229 230 232 234 237 237 235 234 235 236 238 240 242 241 237 235 238 241 243 244 244 247 249 251 251 250 251 251 250 248 246 244 242 243 243 244 245 246 247 247 249 253 257 259 263 266 268 268 270 273 276 277 279 281 282 282 281 281 280 280 281 282 284 287
238 237 234 228 226 227 227 227 230 233 231 228 230 234 235 233 231 231 232 229 227 227 229 229 231 234 236 236 235 234 234 237 238 239 242 242 238 236 237 239 241 242 242 243 246 249 251 251 251 251 249 246 244 241 241 242 242 243 246 247 246 247 249 253 256 259 261 264 265 266 267 269 273 274 274 275 276 276 277 277 278 279 280 281 284 285
240 240 240 235 231 231 229 225 225 226 225 225 226 230 232 231 228 228 229 227 225 226 228 230 231 233 234 234 235 234 234 236 238 238 239 240 240 240 239 239 240 241 241 242 244 246 248 249 249 249 248 246 243 241 240 241 243 244 246 246 246 247 250 253 257 259 261 262 264 264 264 265 267 269 270 271 273 274 275 276 277 279 280 282 283 285
242 242 243 240 239 237 230 223 221 220 221 225 226 227 229 229 227 226 225 225 226 227 229 232 233 234 235 234 235 236 236 237 238 237 237 238 240 241 240 238 239 240 241 241 242 244 245 246 247 248 248 246 243 242 241 242 243 245 247 247 247 249 251 254 258 260 262 263 263 263 262 263 264 265 267 268 270 272 275 277 279 280 282 284 285 286
244 244 245 243 243 241 230 219 218 219 219 224 228 228 229 229 228 227 225 223 225 227 229 232 235 236 236 235 234 236 237 239 239 239 238 239 241 242 241 240 239 240 241 242 242 243 245 246 246 247 248 247 245 244 243 244 245 247 248 249 249 251 253 256 259 261 263 264 264 264 263 264 265 266 267 269 272 274 277 280 282 284 286 287 288 288
244 245 246 244 245 243 230 217 217 220 218 223 229 229 229 230 230 230 227 224 224 225 227 230 234 236 237 237 235 235 236 238 239 240 239 240 241 242 242 243 243 244 245 244 242 242 244 246 246 247 247 247 246 245 244 245 247 248 250 251 251 252 255 257 259 262 265 266 266 267 267 267 268 270 273 275 277 279 281 282 284 285 287 288 288 289
246 246 246 245 247 245 231 216 218 223 219 221 230 231 232 233 232 232 231 228 225 225 227 231 234 237 239 239 238 236 235 236 237 238 239 239 240 241 241 241 243 245 246 246 244 243 243 244 244 244 246 246 246 245 245 247 248 250 252 252 252 253 256 258 260 263 266 267 268 269 269 271 272 275 277 279 281 283 284 285 285 286 287 288 288 289
247 248 248 247 248 246 231 218 224 230 222 222 233 236 237 239 237 234 234 232 228 227 227 230 234 237 239 240 240 240 238 236 235 236 238 238 238 238 239 239 241 243 244 244 243 242 242 242 241 242 244 245 246 247 247 249 250 252 253 253 253 255 257 259 261 263 266 267 268 269 270 272 274 277 279 281 282 284 286 287 288 288 289 289 290 291
248 249 250 249 249 245 232 225 232 234 225 224 234 239 241 245 242 237 235 233 230 229 228 229 232 236 238 239 240 240 240 239 236 235 237 238 237 235 237 238 240 241 241 241 240 240 239 240 241 242 244 245 246 247 249 250 252 253 254 255 256 258 260 261 262 264 266 267 268 268 269 272 274 277 279 281 282 284 285 287 288 289 290 291 291 292
Height
5764 5764 5767 5777 5787 5794 5798 5799 5801 5803 5804 5806 5809 5812 5813 5815 5821 5827 5828 5828 5828 5827 5830 5832 5833 5840 5844 5843 5844 5844 5844 5848 5852 5854 5855 5856 5856 5857 5859 5861 5863 5864 5865 5863 5864 5866 5867 5867 5867 5867 5868 5869 5870 5871 5871 5871 5871 5871 5873 5873 5873 5873 5873 5873 5873 5873 5874 5874 5874 5875 5876 5876 5876 5877 5878 5878 5878 5878 5878 5878 5878 5878 5877 5877 5877 5877
5757 5758 5768 5782 5790 5792 5793 5795 5797 5798 5800 5802 5805 5808 5809 5813 5818 5822 5823 5824 5825 5824 5827 5829 5829 5834 5840 5840 5840 5840 5841 5846 5850 5850 5851 5853 5853 5854 5856 5858 5860 5862 5862 5862 5863 5864 5864 5865 5865 5865 5865 5866 5867 5868 5869 5869 5869 5869 5869 5870 5870 5871 5872 5872 5872 5872 5872 5872 5872 5873 5874 5874 5874 5875 5876 5876 5876 5877 5877 5876 5875 5874 5874 5874 5875 5875
5749 5756 5773 5783 5785 5785 5786 5789 5791 5793 5796 5798 5801 5803 5806 5811 5815 5818 5820 5821 5821 5821 5823 5824 5824 5829 5836 5836 5836 5837 5839 5843 5845 5846 5847 5848 5850 5852 5854 5856 5857 5859 5860 5861 5862 5862 5862 5863 5863 5863 5864 5864 5864 5864 5866 5867 5867 5867 5867 5866 5867 5869 5870 5869 5870 5870 5870 5870 5871 5872 5872 5872 5872 5873 5873 5874 5874 5874 5874 5873 5872 5872 5871 5871 5872 5872
5747 5761 5776 5777 5774 5776 5779 5782 5783 5786 5790 5793 5796 5799 5804 5809 5811 5813 5816 5817 5817 5817 5818 5820 5820 5824 5831 5832 5833 5835 5837 5838 5840 5841 5844 5846 5848 5850 5852 5853 5855 5856 5858 5859 5859 5860 5860 5860 5861 5861 5861 5861 5861 5862 5863 5864 5865 5865 5865 5864 5865 5866 5867 5867 5868 5868 5868 5869 5869 5870 5870 5870 5871 5871 5871 5872 5872 5871 5870 5870 5870 5870 5869 5869 5869 5869
5750 5762 5767 5766 5766 5769 5772 5774 5776 5779 5784 5789 5793 5797 5802 5805 5807 5809 5812 5811 5812 5813 5814 5815 5814 5818 5826 5830 5832 5833 5832 5834 5837 5838 5840 5843 5845 5847 5848 5850 5852 5854 5855 5856 5856 5857 5857 5858 5858 5859 5859 5859 5859 5860 5861 5861 5862 5863 5863 5862 5862 5863 5864 5864 5865 5865 5866 5866 5867 5867 5868 5868 5869 5869 5869 5869 5869 5868 5868 5868 5868 5868 5868 5867 5866 5865
5749 5754 5757 5759 5760 5761 5765 5769 5773 5777 5782 5786 5790 5796 5801 5803 5803 5804 5806 5806 5807 5809 5811 5811 5809 5813 5822 5827 5829 5831 5828 5831 5835 5835 5837 5840 5842 5843 5845 5847 5849 5850 5852 5853 5853 5853 5854 5856 5856 5856 5857 5857 5857 5858 5858 5857 5858 5859 5860 5860 5860 5860 5861 5861 5862 5862 5863 5864 5864 5865 5865 5865 5866 5866 5866 5866 5865 5865 5866 5866 5866 5866 5865 5864 5863 5862
5744 5749 5753 5754 5753 5756 5761 5765 5770 5776 5778 5781 5789 5795 5797 5798 5799 5799 5801 5801 5802 5804 5806 5807 5805 5807 5816 5822 5826 5827 5826 5827 5831 5832 5835 5837 5838 5840 5842 5843 5845 5846 5848 5849 5850 5850 5851 5852 5853 5854 5854 5854 5855 5855 5854 5854 5855 5856 5856 5857 5857 5857 5858 5858 5859 5859 5860 5861 5861 5862 5862 5862 5863 5864 5863 5862 5862 5862 5862 5862 5863 5863 5862 5861 5860 5858
5740 5746 5748 5747 5749 5751 5753 5760 5769 5773 5774 5780 5788 5791 5792 5794 5794 5793 5795 5796 5796 5798 5799 5802 5803 5802 5807 5818 5823 5824 5823 5824 5827 5831 5833 5834 5834 5835 5837 5839 5841 5842 5844 5845 5847 5847 5848 5849 5850 5851 5851 5852 5852 5851 5851 5852 5853 5853 5853 5853 5854 5855 5855 5856 5856 5857 5857 5858 5858 5858 5859 5860 5861 5860 5860 5859 5859 5859 5859 5859 5859 5859 5858 5857 5857 5855
5738 5741 5743 5745 5747 5748 5753 5763 5769 5769 5771 5777 5782 5784 5785 5787 5787 5787 5789 5790 5791 5791 5792 5798 5801 5798 5801 5813 5820 5821 5820 5822 5826 5829 5830 5830 5831 5832 5833 5835 5837 5838 5839 5841 5842 5844 5845 5846 5847 5847 5848 5848 5848 5848 5848 5849 5850 5850 5850 5851 5851 5852 5853 5852 5852 5853 5854 5854 5855 5855 5856 5857 5857 5857 5856 5856 5856 5856 5856 5856 5855 5855 5854 5853 5853 5852
5731 5735 5741 5742 5742 5748 5757 5762 5763 5765 5767 5769 5773 5777 5779 5778 5779 5781 5781 5784 5785 5782 5787 5795 5798 5796 5796 5805 5816 5818 5818 5822 5825 5826 5826 5827 5828 5828 5830 5831 5832 5833 5835 5836 5838 5840 5841 5842 5843 5843 5844 5844 5845 5845 5845 5846 5846 5847 5848 5848 5849 5850 5850 5849 5849 5850 5850 5851 5851 5852 5853 5853 5853 5853 5853 5853 5853 5853 5853 5852 5852 5851 5850 5850 5850 5849
5723 5729 5732 5732 5737 5747 5752 5753 5757 5762 5761 5761 5765 5770 5771 5770 5773 5775 5776 5780 5778 5775 5783 5791 5794 5794 5792 5798 5810 5815 5817 5821 5822 5822 5824 5825 5825 5825 5826 5827 5828 5829 5831 5832 5834 5835 5836 5837 5838 5839 5840 5841 5841 5841 5842 5842 5843 5844 5844 5845 5846 5846 5846 5846 5847 5847 5847 5847 5848 5849 5849 5849 5849 5849 5849 5849 5850 5849 5849 5849 5848 5848 5847 5847 5846 5846
5718 5720 5722 5728 5736 5741 5742 5745 5751 5755 5754 5754 5759 5764 5764 5765 5768 5769 5771 5772 5770 5773 5783 5787 5789 5790 5788 5793 5805 5813 5817 5819 5819 5820 5820 5821 5821 5821 5823 5823 5825 5826 5827 5828 5829 5830 5831 5832 5833 5834 5836 5837 5837 5837 5838 5839 5840 5840 5841 5842 5842 5843 5843 5843 5844 5844 5844 5844 5844 5845 5845 5845 5845 5845 5846 5846 5846 5846 5846 5846 5845 5844 5844 5843 5842 5842
5712 5715 5720 5728 5732 5733 5736 5740 5744 5746 5747 5749 5753 5756 5757 5759 5762 5763 5764 5767 5768 5774 5781 5781 5781 5783 5785 5792 5800 5808 5814 5814 5814 5816 5816 5816 5817 5818 5819 5820 5821 5822 5823 5825 5826 5826 5827 5828 5829 5830 5831 5833 5833 5834 5834 5835 5836 5836 5837 5838 5839 5839 5840 5840 5840 5840 5841 5841 5841 5841 5841 5841 5841 5841 5842 5842 5842 5842 5842 5842 5842 5841 5840 5839 5839 5838
5708 5710 5714 5719 5723 5726 5730 5732 5736 5740 5743 5745 5748 5749 5751 5753 5755 5756 5759 5764 5767 5772 5774 5773 5772 5775 5783 5790 5794 5802 5808 5809 5810 5812 5813 5814 5814 5814 5815 5816 5818 5819 5819 5821 5822 5823 5824 5825 5825 5826 5827 5829 5829 5830 5831 5831 5832 5832 5833 5834 5835 5836 5836 5836 5836 5837 5837 5837 5838 5838 5837 5837 5837 5838 5838 5838 5838 5838 5838 5838 5837 5837 5836 5835 5835 5834
5701 5702 5704 5712 5720 5724 5727 5732 5738 5742 5743 5745 5748 5748 5748 5749 5750 5754 5757 5760 5764 5768 5768 5765 5763 5770 5781 5788 5791 5795 5799 5804 5806 5808 5810 5811 5811 5811 5811 5812 5814 5815 5816 5817 5818 5820 5821 5822 5822 5823 5824 5825 5826 5827 5827 5828 5828 5829 5830 5830 5831 5832 5832 5832 5832 5833 5833 5834 5834 5834 5834 5834 5834 5834 5834 5834 5834 5833 5833 5833 5832 5832 5831 5831 5830 5829
5695 5697 5704 5715 5720 5723 5727 5733 5737 5737 5736 5740 5742 5740 5740 5744 5748 5753 5755 5758 5762 5762 5760 5758 5760 5770 5778 5782 5787 5789 5791 5798 5802 5803 5806 5808 5808 5808 5808 5809 5811 5811 5813 5814 5815 5816 5817 5818 5819 5820 5821 5821 5822 5823 5824 5825 5825 5826 5826 5827 5827 5827 5827 5828 5829 5829 5830 5830 5830 5830 5830 5830 5830 5830 5829 5829 5829 5828 5827 5827 5827 5827 5826 5825 5825 5824
5691 5695 5703 5710 5712 5716 5724 5729 5729 5728 5731 5734 5732 5732 5738 5743 5745 5748 5749 5752 5754 5751 5750 5754 5759 5768 5772 5773 5780 5784 5785 5791 5797 5799 5801 5803 5805 5806 5806 5806 5807 5808 5810 5811 5812 5812 5813 5815 5816 5817 5818 5818 5818 5819 5820 5821 5821 5822 5822 5823 5824 5824 5824 5824 5825 5825 5825 5825 5826 5826 5826 5826 5826 5825 5825 5825 5824 5823 5823 5822 5822 5822 5821 5820 5819 5818
5689 5693 5698 5702 5706 5715 5722 5723 5722 5723 5726 5726 5725 5732 5740 5738 5736 5740 5741 5742 5743 5742 5745 5751 5756 5763 5766 5768 5775 5781 5783 5787 5791 5795 5798 5799 5801 5802 5802 5803 5803 5804 5806 5808 5809 5809 5810 5811 5812 5813 5814 5815 5815 5816 5816 5817 5817 5818 5819 5819 5820 5820 5820 5821 5821 5821 5821 5821 5822 5822 5822 5821 5821 5821 5821 5820 5820 5819 5818 5818 5817 5817 5816 5815 5814 5813
5687 5689 5691 5695 5702 5710 5713 5712 5712 5713 5715 5718 5723 5731 5733 5728 5728 5733 5735 5736 5740 5741 5743 5749 5753 5755 5759 5765 5771 5776 5781 5784 5784 5789 5793 5795 5797 5797 5799 5799 5799 5800 5802 5803 5805 5806 5807 5807 5808 5810 5810 5811 5812 5812 5813 5813 5814 5815 5815 5815 5816 5816 5816 5816 5817 5817 5817 5818 5818 5818 5817 5817 5817 5817 5816 5816 5815 5815 5815 5814 5813 5812 5811 5810 5809 5808
5683 5684 5686 5691 5697 5701 5700 5699 5700 5703 5708 5714 5719 5722 5722 5722 5725 5728 5732 5735 5739 5740 5742 5745 5745 5747 5756 5765 5768 5771 5777 5780 5780 5783 5786 5789 5792 5793 5794 5795 5795 5796 5797 5799 5801 5802 5803 5804 5804 5806 5806 5807 5808 5808 5809 5810 5810 5811 5811 5812 5812 5812 5812 5813 5813 5814 5814 5814 5814 5814 5813 5813 5813 5813 5813 5812 5812 5811 5811 5810 5808 5808 5806 5805 5804 5803
5678 5679 5682 5687 5690 5688 5686 5689 5695 5701 5706 5709 5713 5714 5715 5719 5721 5724 5727 5729 5732 5734 5736 5737 5737 5744 5757 5763 5763 5767 5771 5774 5777 5779 5779 5781 5786 5788 5789 5790 5791 5792 5793 5795 5796 5798 5799 5800 5801 5802 5802 5803 5804 5804 5805 5806 5807 5807 5807 5808 5808 5809 5809 5810 5810 5810 5810 5810 5810 5810 5810 5810 5809 5809 5809 5808 5807 5807 5806 5805 5804 5803 5802 5801 5800 5798
5672 5674 5677 5680 5680 5678 5682 5690 5697 5701 5703 5708 5709 5709 5713 5717 5718 5719 5719 5721 5725 5728 5731 5733 5733 5742 5754 5756 5758 5762 5765 5770 5774 5773 5774 5775 5779 5782 5784 5786 5788 5789 5790 5791 5791 5793 5794 5796 5797 5798 5798 5799 5800 5801 5801 5802 5803 5803 5804 5804 5805 5805 5806 5806 5806 5806 5806 5806 5806 5806 5806 5806 5805 5805 5804 5803 5803 5802 5801 5800 5799 5798 5797 5796 5795 5793
5669 5670 5671 5673 5675 5678 5682 5688 5691 5693 5698 5702 5701 5702 5708 5709 5709 5711 5713 5718 5724 5726 5730 5732 5728 5736 5748 5750 5754 5758 5760 5768 5771 5769 5770 5771 5772 5776 5778 5780 5783 5784 5785 5786 5787 5788 5789 5791 5792 5793 5794 5795 5796 5797 5797 5798 5799 5799 5800 5800 5801 5801 5802 5802 5802 5802 5802 5802 5802 5802 5801 5801 5800 5800 5799 5799 5798 5797 5796 5795 5794 5793 5792 5791 5790 5788
5661 5662 5664 5667 5673 5676 5677 5680 5683 5686 5688 5688 5689 5695 5699 5699 5703 5709 5712 5717 5720 5720 5727 5726 5720 5732 5745 5747 5750 5753 5754 5762 5767 5765 5765 5766 5767 5770 5772 5774 5776 5777 5779 5781 5782 5784 5785 5786 5787 5788 5790 5791 5792 5793 5793 5794 5795 5795 5796 5796 5796 5797 5797 5797 5797 5797 5797 5797 5797 5797 5796 5796 5796 5795 5794 5794 5793 5792 5791 5790 5789 5788 5787 5786 5784 5783
5653 5653 5656 5661 5664 5666 5668 5669 5672 5675 5677 5678 5683 5690 5693 5695 5701 5703 5707 5711 5709 5713 5721 5718 5717 5734 5744 5743 5746 5748 5748 5754 5759 5759 5759 5760 5763 5764 5766 5767 5769 5770 5773 5775 5777 5779 5780 5782 5783 5784 5785 5786 5787 5788 5789 5789 5790 5790 5791 5792 5792 5792 5792 5792 5792 5792 5793 5793 5792 5792 5792 5791 5791 5790 5789 5788 5787 5786 5785 5784 5783 5782 5781 5780 5779 5777
5648 5646 5648 5652 5652 5655 5658 5659 5664 5671 5674 5675 5680 5686 5689 5693 5695 5696 5702 5702 5700 5710 5716 5712 5719 5735 5739 5738 5741 5741 5742 5745 5750 5754 5754 5755 5758 5759 5760 5761 5762 5765 5768 5769 5772 5774 5775 5777 5778 5779 5781 5782 5783 5783 5784 5784 5785 5786 5786 5786 5787 5787 5787 5787 5787 5787 5787 5787 5787 5787 5786 5786 5785 5784 5783 5782 5781 5781 5779 5779 5777 5776 5775 5774 5772 5771
5637 5635 5640 5645 5647 5652 5657 5660 5666 5670 5670 5671 5677 5683 5686 5689 5690 5693 5694 5690 5697 5710 5708 5707 5721 5730 5730 5734 5735 5734 5736 5738 5742 5748 5751 5752 5753 5754 5753 5754 5757 5760 5762 5764 5766 5768 5769 5771 5772 5774 5775 5777 5778 5778 5779 5780 5780 5781 5781 5781 5781 5781 5781 5781 5782 5782 5782 5782 5782 5781 5781 5780 5779 5778 5777 5776 5775 5775 5773 5772 5771 5770 5769 5767 5766 5764
5624 5624 5632 5638 5643 5650 5654 5657 5661 5661 5662 5668 5674 5678 5681 5684 5684 5683 5682 5685 5697 5701 5695 5704 5719 5720 5722 5728 5726 5727 5733 5734 5735 5740 5744 5746 5746 5746 5748 5749 5752 5755 5757 5759 5760 5761 5763 5764 5766 5768 5769 5771 5772 5773 5774 5774 5775 5775 5775 5775 5776 5775 5776 5776 5776 5776 5776 5776 5776 5775 5775 5774 5773 5772 5771 5771 5770 5769 5768 5767 5765 5764 5763 5761 5760 5758
5615 5618 5627 5633 5637 5643 5647 5651 5653 5654 5657 5663 5667 5670 5674 5676 5676 5675 5679 5687 5694 5689 5692 5708 5713 5709 5716 5720 5717 5723 5729 5727 5727 5728 5732 5737 5738 5739 5743 5744 5747 5749 5750 5752 5753 5754 5756 5758 5760 5762 5763 5765 5766 5766 5767 5768 5768 5769 5769 5770 5770 5770 5770 5770 5770 5771 5770 5770 5770 5769 5769 5768 5767 5767 5766 5765 5764 5763 5762 5761 5759 5758 5756 5755 5753 5752
5612 5617 5623 5626 5631 5637 5639 5643 5646 5648 5650 5655 5657 5661 5666 5667 5669 5672 5677 5684 5687 5684 5692 5704 5701 5700 5711 5714 5716 5722 5721 5718 5721 5721 5724 5730 5731 5732 5735 5736 5739 5741 5742 5743 5745 5747 5749 5752 5754 5756 5758 5759 5759 5760 5761 5761 5762 5763 5763 5764 5764 5763 5764 5764 5764 5765 5765 5764 5764 5763 5763 5762 5762 5761 5760 5759 5758 5757 5756 5755 5753 5752 5750 5748 5747 5745
5607 5612 5617 5621 5625 5628 5631 5636 5639 5641 5644 5647 5649 5653 5657 5660 5663 5666 5670 5677 5679 5678 5687 5696 5692 5695 5708 5713 5714 5716 5712 5712 5716 5716 5718 5722 5722 5723 5725 5728 5731 5732 5733 5736 5737 5740 5743 5746 5748 5750 5752 5753 5753 5753 5754 5755 5756 5757 5757 5757 5757 5758 5758 5758 5758 5759 5758 5758 5758 5757 5757 5757 5756 5756 5755 5754 5753 5751 5750 5749 5747 5746 5744 5742 5741 5739
5601 5605 5610 5613 5615 5618 5626 5630 5632 5635 5638 5638 5639 5644 5649 5652 5656 5660 5665 5670 5671 5673 5682 5686 5683 5692 5705 5707 5706 5707 5706 5708 5710 5711 5711 5713 5715 5716 5717 5721 5724 5725 5727 5730 5731 5735 5738 5740 5742 5743 5744 5745 5746 5747 5748 5749 5750 5750 5750 5751 5752 5752 5753 5752 5752 5752 5752 5752 5752 5752 5752 5752 5751 5751 5749 5748 5747 5746 5744 5743 5741 5739 5738 5736 5734 5733
5594 5598 5603 5605 5607 5614 5620 5623 5627 5631 5626 5621 5629 5640 5646 5649 5653 5656 5660 5665 5667 5670 5675 5676 5682 5694 5700 5698 5698 5701 5702 5703 5705 5706 5705 5706 5709 5710 5709 5713 5717 5719 5722 5725 5726 5729 5731 5733 5734 5735 5736 5738 5739 5740 5741 5742 5743 5744 5744 5745 5746 5746 5746 5746 5747 5746 5746 5746 5746 5746 5746 5746 5745 5745 5743 5742 5741 5739 5738 5736 5734 5733 5731 5730 5729 5727
5587 5592 5597 5599 5602 5609 5613 5617 5621 5617 5608 5614 5632 5643 5644 5646 5649 5650 5653 5660 5664 5665 5668 5672 5681 5688 5687 5688 5693 5695 5695 5698 5699 5699 5700 5700 5701 5702 5701 5704 5708 5712 5715 5717 5719 5722 5723 5724 5725 5726 5729 5731 5732 5733 5735 5736 5737 5737 5738 5739 5739 5740 5740 5740 5741 5740 5740 5741 5741 5741 5740 5740 5739 5738 5737 5736 5734 5732 5731 5729 5728 5727 5726 5724 5723 5722
5582 5586 5591 5593 5595 5602 5608 5611 5607 5601 5606 5622 5633 5635 5637 5641 5644 5644 5647 5653 5656 5657 5661 5666 5673 5679 5682 5685 5689 5689 5690 5692 5692 5693 5695 5694 5695 5697 5696 5698 5702 5705 5708 5710 5712 5713 5714 5715 5717 5720 5722 5724 5725 5726 5728 5729 5730 5730 5731 5732 5733 5733 5734 5734 5734 5735 5735 5735 5735 5735 5735 5734 5733 5732 5730 5729 5728 5726 5725 5724 5723 5721 5720 5719 5717 5716
5577 5580 5584 5588 5590 5595 5600 5599 5596 5599 5611 5620 5622 5625 5631 5634 5637 5638 5638 5642 5648 5651 5655 5660 5668 5677 5680 5680 5682 5683 5684 5684 5684 5686 5689 5688 5690 5692 5691 5694 5697 5699 5702 5704 5705 5706 5707 5709 5711 5714 5715 5716 5718 5720 5721 5723 5723 5724 5725 5726 5726 5727 5727 5728 5728 5729 5729 5729 5729 5729 5729 5728 5727 5726 5724 5723 5722 5720 5719 5718 5717 5716 5714 5713 5711 5710
5571 5574 5579 5583 5585 5589 5592 5592 5594 5599 5604 5608 5614 5622 5628 5630 5634 5635 5633 5638 5646 5649 5649 5654 5662 5668 5670 5671 5674 5675 5675 5675 5676 5678 5681 5682 5685 5688 5688 5690 5692 5693 5695 5696 5697 5699 5701 5703 5705 5707 5708 5710 5712 5714 5715 5716 5717 5718 5719 5719 5719 5720 5721 5722 5723 5723 5723 5723 5723 5723 5723 5722 5721 5719 5718 5717 5716 5715 5714 5712 5711 5710 5709 5707 5706 5704
5565 5568 5574 5577 5579 5583 5586 5588 5591 5591 5595 5606 5617 5624 5628 5629 5630 5628 5626 5630 5638 5641 5642 5649 5656 5661 5665 5668 5668 5668 5669 5668 5669 5674 5678 5679 5682 5684 5685 5687 5688 5688 5688 5688 5689 5692 5695 5697 5700 5701 5702 5704 5706 5708 5709 5710 5711 5712 5712 5712 5713 5714 5715 5716 5716 5717 5717 5717 5717 5717 5717 5716 5714 5713 5712 5711 5710 5708 5707 5706 5705 5704 5703 5702 5700 5699
5560 5563 5567 5568 5571 5576 5579 5582 5583 5584 5594 5609 5617 5620 5621 5619 5620 5621 5617 5620 5631 5638 5640 5646 5652 5657 5662 5663 5660 5661 5661 5659 5663 5672 5676 5675 5677 5678 5678 5681 5682 5681 5681 5681 5683 5687 5688 5690 5692 5693 5695 5698 5700 5702 5703 5704 5705 5705 5706 5706 5707 5708 5709 5710 5710 5711 5711 5711 5711 5711 5710 5709 5708 5707 5706 5705 5703 5702 5701 5700 5699 5698 5697 5696 5694 5693
5555 5558 5560 5561 5565 5571 5574 5576 5579 5583 5595 5606 5610 5609 5609 5610 5614 5613 5606 5615 5633 5638 5637 5641 5648 5653 5656 5654 5650 5650 5651 5652 5660 5669 5669 5668 5670 5670 5671 5674 5675 5674 5674 5675 5677 5680 5681 5682 5684 5687 5689 5692 5694 5696 5697 5698 5698 5699 5700 5701 5701 5702 5703 5703 5704 5705 5705 5705 5704 5704 5703 5703 5702 5701 5700 5698 5697 5696 5695 5694 5693 5692 5691 5689 5688 5687
5550 5553 5555 5557 5562 5566 5568 5572 5576 5583 5594 5602 5602 5601 5601 5603 5603 5599 5603 5621 5635 5634 5633 5639 5642 5645 5646 5643 5640 5642 5646 5650 5656 5658 5658 5660 5663 5663 5664 5667 5667 5668 5669 5669 5670 5673 5675 5677 5679 5681 5684 5686 5688 5689 5690 5691 5692 5692 5693 5694 5695 5696 5697 5698 5698 5698 5698 5698 5698 5697 5697 5696 5695 5694 5694 5692 5691 5690 5689 5688 5687 5686 5684 5683 5682 5680
5545 5548 5550 5554 5558 5560 5563 5567 5570 5580 5592 5597 5594 5592 5592 5592 5593 5599 5612 5624 5626 5627 5631 5633 5632 5634 5633 5631 5633 5638 5642 5645 5646 5645 5648 5653 5655 5657 5658 5659 5659 5661 5663 5663 5664 5666 5668 5671 5673 5675 5677 5679 5681 5682 5683 5684 5685 5686 5687 5688 5689 5690 5691 5692 5692 5692 5691 5691 5691 5690 5690 5689 5689 5688 5687 5686 5685 5684 5682 5681 5680 5679 5678 5677 5676 5675
5539 5541 5543 5548 5552 5555 5558 5558 5563 5577 5590 5591 5586 5585 5585 5588 5595 5604 5611 5612 5614 5620 5622 5621 5622 5624 5623 5625 5630 5633 5635 5636 5636 5638 5640 5643 5647 5650 5651 5651 5652 5654 5656 5657 5657 5658 5661 5664 5666 5668 5670 5672 5674 5675 5676 5677 5678 5679 5680 5681 5683 5684 5685 5685 5685 5685 5685 5685 5684 5684 5683 5682 5682 5681 5680 5679 5679 5677 5676 5675 5673 5672 5672 5670 5670 5669
5531 5533 5537 5542 5547 5548 5549 5551 5562 5577 5584 5581 5578 5578 5580 5585 5593 5596 5597 5601 5606 5609 5610 5611 5615 5616 5616 5620 5623 5624 5625 5627 5628 5631 5632 5634 5639 5643 5644 5645 5646 5647 5649 5651 5651 5652 5654 5656 5659 5661 5663 5665 5667 5668 5669 5670 5671 5672 5674 5675 5676 5677 5678 5678 5678 5678 5678 5677 5677 5677 5676 5676 5675 5674 5673 5672 5671 5670 5669 5668 5667 5666 5666 5664 5663 5662
5525 5529 5532 5535 5537 5537 5539 5548 5560 5570 5573 5573 5573 5573 5573 5578 5582 5584 5587 5594 5598 5599 5601 5604 5605 5606 5609 5612 5613 5615 5618 5620 5622 5625 5625 5627 5631 5635 5637 5640 5640 5641 5643 5644 5645 5646 5647 5649 5651 5653 5655 5658 5659 5661 5662 5663 5664 5666 5667 5668 5669 5670 5671 5671 5671 5671 5670 5670 5670 5670 5669 5669 5668 5668 5667 5666 5665 5664 5663 5662 5661 5660 5659 5658 5657 5656
5521 5524 5525 5527 5529 5530 5535 5546 5556 5563 5567 5568 5567 5567 5569 5573 5576 5579 5582 5587 5590 5592 5594 5596 5597 5600 5603 5606 5608 5610 5612 5613 5615 5617 5618 5621 5624 5625 5629 5632 5633 5634 5637 5638 5639 5640 5640 5642 5644 5646 5648 5650 5652 5653 5655 5656 5657 5659 5660 5661 5662 5663 5663 5664 5664 5664 5663 5663 5663 5663 5662 5662 5661 5660 5660 5659 5658 5657 5656 5655 5655 5654 5653 5652 5651 5650
5516 5517 5518 5521 5523 5525 5533 5546 5555 5559 5562 5561 5559 5562 5566 5569 5571 5573 5577 5580 5582 5584 5587 5589 5590 5593 5596 5600 5603 5605 5606 5607 5609 5611 5613 5616 5617 5619 5623 5625 5626 5628 5630 5631 5633 5634 5634 5636 5638 5639 5641 5643 5645 5647 5648 5649 5650 5651 5652 5654 5655 5656 5656 5657 5657 5656 5656 5656 5656 5656 5655 5655 5654 5653 5653 5652 5651 5651 5650 5649 5649 5648 5647 5647 5646 5644
5511 5511 5511 5514 5517 5519 5530 5543 5549 5550 5553 5554 5555 5558 5562 5564 5565 5566 5569 5571 5573 5575 5579 5582 5583 5585 5589 5593 5597 5599 5600 5602 5603 5605 5607 5609 5611 5614 5617 5618 5620 5622 5623 5624 5626 5627 5628 5630 5632 5633 5635 5636 5638 5640 5640 5641 5643 5644 5645 5647 5648 5648 5649 5649 5649 5649 5649 5649 5649 5648 5648 5647 5647 5646 5646 5645 5645 5645 5644 5643 5643 5642 5641 5641 5639 5638
5504 5504 5506 5510 5512 5515 5526 5539 5544 5544 5549 5552 5553 5554 5556 5557 5558 5559 5561 5564 5566 5569 5573 5576 5578 5580 5583 5586 5588 5591 5594 5596 5597 5598 5600 5601 5604 5607 5609 5611 5613 5613 5614 5617 5619 5621 5623 5624 5625 5627 5627 5629 5631 5632 5634 5635 5636 5637 5638 5639 5640 5641 5641 5641 5641 5642 5641 5641 5641 5641 5641 5640 5640 5639 5639 5639 5638 5638 5637 5637 5636 5635 5635 5634 5633 5632
5498 5499 5504 5507 5507 5511 5525 5538 5539 5538 5542 5546 5546 5547 5548 5548 5549 5551 5554 5557 5561 5564 5568 5570 5573 5575 5577 5578 5580 5583 5586 5589 5590 5591 5592 5595 5597 5598 5600 5603 5605 5606 5608 5610 5612 5615 5616 5617 5618 5619 5620 5621 5624 5625 5627 5628 5629 5630 5631 5632 5632 5633 5633 5633 5634 5634 5634 5634 5634 5633 5633 5633 5632 5632 5632 5631 5631 5631 5630 5630 5629 5628 5628 5627 5626 5625
5494 5497 5500 5500 5500 5508 5521 5528 5526 5526 5533 5537 5538 5539 5540 5539 5540 5543 5548 5551 5555 5558 5560 5563 5566 5568 5570 5571 5573 5575 5578 5581 5583 5585 5587 5588 5590 5592 5593 5596 5598 5600 5602 5603 5605 5607 5609 5610 5611 5612 5613 5615 5617 5619 5620 5621 5622 5622 5624 5624 5625 5626 5626 5626 5627 5627 5626 5626 5626 5625 5626 5625 5625 5625 5624 5624 5624 5623 5623 5622 5622 5621 5620 5619 5618 5617